MST,Max TemperatureF,Mean TemperatureF,Min TemperatureF,Max Dew PointF,MeanDew PointF,Min DewpointF,Max Humidity, Mean Humidity, Min Humidity, Max Sea Level PressureIn, Mean Sea Level PressureIn, Min Sea Level PressureIn, Max VisibilityMiles, Mean VisibilityMiles, Min VisibilityMiles, Max Wind SpeedMPH, Mean Wind SpeedMPH, Max Gust SpeedMPH,PrecipitationIn, CloudCover, Events, WindDirDegrees
2014-2-1,18,6,-7,7,-1,-11,87,72,56,30.03,29.81,29.62,10,9,3,15,8,19,T,5,Snow,9
2014-2-2,26,8,-10,3,-7,-14,87,55,22,30.19,30.01,29.87,10,10,6,18,7,23,0.00,1,,36
2014-2-3,21,9,-4,7,3,-6,87,66,45,29.95,29.75,29.67,10,6,1,14,4,18,0.01,6,Snow,73
2014-2-4,14,5,-5,6,3,-9,88,76,64,30.01,29.69,29.61,10,4,1,18,5,23,0.06,8,Snow,321
2014-2-5,15,4,-8,-3,-7,-12,79,63,46,30.06,29.98,29.83,10,9,4,18,8,23,T,5,,8
2014-2-6,19,12,4,7,3,-4,80,67,54,29.87,29.81,29.75,10,7,2,21,9,30,0.01,8,Snow,326
2014-2-7,24,17,10,16,11,7,88,75,62,29.86,29.76,29.71,10,4,0,29,8,34,0.02,8,Fog-Snow,334
2014-2-8,25,20,14,21,16,11,92,83,74,30.02,29.91,29.81,10,2,0,26,9,38,0.20,8,Fog-Snow,315
2014-2-9,31,27,22,25,22,16,96,80,63,30.02,29.92,29.79,10,4,0,25,10,35,0.23,8,Fog-Snow,305
2014-2-10,30,20,9,23,16,4,92,84,76,30.09,29.95,29.78,10,5,0,26,7,34,0.08,8,Fog-Snow,360
2014-2-11,27,10,-7,13,5,-11,91,62,33,30.22,30.11,29.99,10,7,1,23,8,28,0.02,4,Snow,336
2014-2-12,30,16,2,22,12,-2,88,59,29,30.24,30.06,29.95,10,7,2,24,10,37,0.03,7,Snow,358
2014-2-13,34,30,25,24,21,18,92,77,61,30.09,29.96,29.80,10,4,0,32,17,43,0.17,7,Fog-Rain-Snow,308
2014-2-14,33,28,22,25,20,16,92,75,58,30.09,29.98,29.82,10,5,0,31,15,40,0.03,8,Fog-Rain-Snow,309
2014-2-15,37,33,29,25,20,15,72,58,44,30.02,29.94,29.86,10,9,6,31,12,45,T,6,Rain,334
2014-2-16,37,28,19,25,16,6,75,57,38,30.10,29.91,29.70,10,6,0,36,10,49,0.01,6,Snow,286
2014-2-17,39,21,2,4,-5,-13,64,39,13,30.24,30.09,29.91,10,10,10,23,6,30,0.00,0,,42
2014-2-18,36,26,16,4,1,-4,47,35,23,30.01,29.93,29.86,10,10,10,24,10,36,0.00,0,,357
2014-2-19,34,21,8,22,12,0,92,62,31,29.83,29.63,29.40,10,5,0,28,11,37,0.22,7,Fog-Snow,328
2014-2-20,13,8,2,2,-3,-7,79,67,55,30.14,29.89,29.64,10,4,0,26,14,35,T,7,Snow,319
2014-2-21,25,15,5,6,3,-4,76,58,39,30.04,29.93,29.83,10,7,2,29,15,39,T,5,Snow,292
2014-2-22,26,21,15,14,5,0,62,50,37,29.88,29.81,29.73,10,9,5,28,14,39,T,7,Snow,285
2014-2-23,34,26,18,14,7,3,80,54,28,29.99,29.94,29.87,10,8,2,24,10,33,T,4,Snow,295
2014-2-24,35,30,24,12,7,3,43,38,32,30.00,29.94,29.88,10,10,10,25,10,36,0.00,4,,343
2014-2-25,39,32,25,19,12,5,58,45,32,30.04,29.85,29.75,10,10,6,29,10,37,T,6,Snow,341
2014-2-26,37,26,14,20,13,6,81,55,29,30.03,29.90,29.81,10,9,2,22,9,28,0.01,3,Snow,349
2014-2-27,36,27,18,26,20,14,85,68,51,29.99,29.69,29.48,10,7,0,16,8,20,0.10,7,Fog-Snow,354
2014-2-28,33,28,22,21,16,8,92,64,35,29.88,29.73,29.54,10,7,2,20,8,26,0.01,7,Snow,334